Tracking 28895 objects as of 28-May-2024
HD Live streaming from Space Station
objects crossing your sky now

COSMOS 1823 DEB

Track COSMOS 1823 DEB now!
10-day predictions


NORAD ID: 18755
Int'l Code: 1987-020AG
Perigee: 1,476.3 km
Apogee: 1,531.3 km
Inclination: 73.6 °
Period: 115.9 minutes
Semi major axis: 7874 km
RCS: 0.0433 m2 (small)
Launch date: February 20, 1987
Source: Commonwealth of Independent States (former USSR) (CIS)
Launch site: PLESETSK MISSILE AND SPACE COMPLEX (PKMTR)

Note: This is SATELLITE DEBRIS
Your satellite tracking list
Your tracking list is empty




NASA's NSSDC Master Catalog

Two Line Element Set (TLE):
1 18755U 87020AG  24141.02045601  .00000220  00000-0  17250-2 0  9994
2 18755  73.6412   9.5426 0034911 193.9105 279.9762 12.42340366650850
Source of the keplerian elements: AFSPC